| time (UTC) | temp F | wind direction | speed MPH | gust MPH | rain 1hr in | rain 24hr in | rain mn in | humidity % | barometer mb |
| 20260506142542 | 66 | 45 | 3.0 | 6.0 | 0.00 | 0.00 | 0.00 | 70 | 1012.9 |
| 20260506141520 | 67 | 41 | 2.0 | 4.0 | 0.00 | 0.00 | 0.00 | 70 | 1013.1 |
| 20260506140535 | 67 | 47 | 2.0 | 4.0 | 0.00 | 0.00 | 0.00 | 69 | 1013.1 |
| 20260506135530 | 66 | 48 | 3.0 | 6.0 | 0.00 | 0.00 | 0.00 | 71 | 1013.0 |
| 20260506134525 | 66 | 42 | 4.0 | 7.0 | 0.00 | 0.00 | 0.00 | 70 | 1013.0 |
| 20260506133521 | 66 | 47 | 3.0 | 8.0 | 0.00 | 0.00 | 0.00 | 70 | 1013.1 |
| 20260506132517 | 67 | 43 | 3.0 | 6.0 | 0.00 | 0.00 | 0.00 | 68 | 1013.2 |
| 20260506131533 | 67 | 35 | 2.0 | 6.0 | 0.00 | 0.00 | 0.00 | 68 | 1013.3 |
| 20260506130529 | 67 | 31 | 3.0 | 6.0 | 0.00 | 0.00 | 0.00 | 69 | 1013.3 |
| 20260506125525 | 66 | 42 | 4.0 | 8.0 | 0.00 | 0.00 | 0.00 | 71 | 1013.5 |
| 20260506124521 | 65 | 48 | 3.0 | 6.0 | 0.00 | 0.00 | 0.00 | 72 | 1013.5 |
| 20260506123548 | 64 | 44 | 5.0 | 8.0 | 0.00 | 0.00 | 0.00 | 75 | 1013.7 |
| 20260506122517 | 65 | 48 | 5.0 | 8.0 | 0.00 | 0.00 | 0.00 | 74 | 1013.7 |
| 20260506121532 | 65 | 39 | 5.0 | 8.0 | 0.00 | 0.00 | 0.00 | 73 | 1013.8 |
| 20260506120528 | 65 | 53 | 3.0 | 7.0 | 0.00 | 0.00 | 0.00 | 72 | 1013.9 |
| 20260506115523 | 64 | 42 | 5.0 | 10.0 | 0.00 | 0.00 | 0.00 | 74 | 1013.9 |
| 20260506114518 | 65 | 39 | 5.0 | 9.0 | 0.00 | 0.00 | 0.00 | 74 | 1014.1 |
| 20260506113532 | 67 | 42 | 4.0 | 7.0 | 0.00 | 0.00 | 0.00 | 70 | 1014.2 |
| 20260506112528 | 67 | 47 | 6.0 | 9.0 | 0.00 | 0.00 | 0.00 | 67 | 1014.1 |
| 20260506111524 | 67 | 63 | 5.0 | 9.0 | 0.00 | 0.00 | 0.00 | 64 | 1014.1 |
| 20260506110519 | 68 | 62 | 3.0 | 7.0 | 0.00 | 0.00 | 0.00 | 58 | 1014.2 |
| 20260506105535 | 67 | 54 | 4.0 | 6.0 | 0.00 | 0.00 | 0.00 | 61 | 1014.2 |
| 20260506104531 | 67 | 38 | 2.0 | 6.0 | 0.00 | 0.00 | 0.00 | 63 | 1014.4 |
| 20260506103527 | 67 | 64 | 3.0 | 7.0 | 0.00 | 0.00 | 0.00 | 60 | 1014.4 |
| 20260506102543 | 65 | 48 | 4.0 | 7.0 | 0.00 | 0.00 | 0.00 | 63 | 1014.5 |
| 20260506101539 | 65 | 46 | 4.0 | 8.0 | 0.00 | 0.00 | 0.00 | 66 | 1014.6 |
| 20260506100534 | 67 | 48 | 3.0 | 7.0 | 0.00 | 0.00 | 0.00 | 62 | 1014.6 |
| 20260506095551 | 65 | 74 | 3.0 | 9.0 | 0.00 | 0.00 | 0.00 | 65 | 1014.6 |
| 20260506094526 | 64 | 45 | 6.0 | 10.0 | 0.00 | 0.00 | 0.00 | 64 | 1014.7 |
| 20260506093523 | 64 | 40 | 5.0 | 9.0 | 0.00 | 0.00 | 0.00 | 62 | 1014.7 |
| 20260506092518 | 65 | 38 | 6.0 | 11.0 | 0.00 | 0.00 | 0.00 | 62 | 1014.7 |
| 20260506091535 | 65 | 34 | 7.0 | 11.0 | 0.00 | 0.00 | 0.00 | 60 | 1014.6 |
| 20260506090530 | 67 | 46 | 5.0 | 9.0 | 0.00 | 0.00 | 0.00 | 57 | 1014.5 |
| 20260506085526 | 68 | 46 | 4.0 | 8.0 | 0.00 | 0.00 | 0.00 | 55 | 1014.4 |
| 20260506084542 | 67 | 32 | 5.0 | 8.0 | 0.00 | 0.00 | 0.00 | 53 | 1014.4 |
| 20260506083517 | 68 | 32 | 3.0 | 8.0 | 0.00 | 0.00 | 0.00 | 46 | 1014.4 |
| 20260506082533 | 68 | 35 | 4.0 | 8.0 | 0.00 | 0.00 | 0.00 | 46 | 1014.3 |
| 20260506081529 | 67 | 60 | 3.0 | 6.0 | 0.00 | 0.00 | 0.00 | 54 | 1014.2 |
| 20260506080525 | 66 | 48 | 3.0 | 7.0 | 0.00 | 0.00 | 0.00 | 58 | 1014.3 |
| 20260506072528 | 65 | 38 | 4.0 | 7.0 | 0.00 | 0.00 | 0.00 | 62 | 1014.3 |
| 20260506071524 | 64 | 41 | 3.0 | 7.0 | 0.00 | 0.00 | 0.00 | 59 | 1014.2 |
| 20260506070600 | 65 | 46 | 3.0 | 6.0 | 0.00 | 0.00 | 0.00 | 56 | 1014.1 |
| 20260506061518 | 65 | 303 | 0.0 | 2.0 | 0.00 | 0.00 | 0.00 | 58 | 1014.4 |
| 20260506060533 | 62 | 232 | 0.0 | 1.0 | 0.00 | 0.00 | 0.00 | 65 | 1014.5 |
| 20260506050526 | 59 | 248 | 0.0 | 1.0 | 0.00 | 0.00 | 0.00 | 69 | 1014.2 |
| 20260506044517 | 58 | 285 | 0.0 | 1.0 | 0.00 | 0.00 | 0.00 | 70 | 1013.9 |
| 20260506043533 | 57 | 261 | 0.0 | 0.0 | 0.00 | 0.00 | 0.00 | 72 | 1013.9 |
| 20260506042527 | 56 | 289 | 1.0 | 3.0 | 0.00 | 0.00 | 0.00 | 73 | 1013.9 |
| 20260506041523 | 54 | 287 | 1.0 | 2.0 | 0.00 | 0.00 | 0.00 | 76 | 1013.9 |
| 20260506040519 | 52 | 233 | 0.0 | 0.0 | 0.00 | 0.00 | 0.00 | 80 | 1013.9 |
| 20260506035535 | 51 | 280 | 1.0 | 2.0 | 0.00 | 0.00 | 0.00 | 82 | 1013.8 |
| 20260506034530 | 50 | 243 | 0.0 | 0.0 | 0.00 | 0.00 | 0.00 | 83 | 1013.7 |
| 20260506033526 | 49 | 225 | 0.0 | 0.0 | 0.00 | 0.00 | 0.00 | 84 | 1013.6 |
| 20260506032522 | 49 | 225 | 0.0 | 0.0 | 0.00 | 0.00 | 0.00 | 84 | 1013.6 |
| 20260506031518 | 49 | 225 | 0.0 | 0.0 | 0.00 | 0.00 | 0.00 | 84 | 1013.6 |
| 20260506030534 | 49 | 225 | 0.0 | 0.0 | 0.00 | 0.00 | 0.00 | 84 | 1013.6 |
| 20260506025530 | 49 | 238 | 0.0 | 0.0 | 0.00 | 0.00 | 0.00 | 84 | 1013.6 |
| 20260506024526 | 50 | 238 | 0.0 | 0.0 | 0.00 | 0.00 | 0.00 | 84 | 1013.5 |
| 20260506023522 | 50 | 219 | 0.0 | 0.0 | 0.00 | 0.00 | 0.00 | 83 | 1013.5 |
| 20260506022518 | 50 | 216 | 0.0 | 0.0 | 0.00 | 0.00 | 0.00 | 84 | 1013.6 |
| 20260506021534 | 49 | 228 | 0.0 | 0.0 | 0.00 | 0.00 | 0.00 | 85 | 1013.6 |
| 20260506020550 | 49 | 234 | 0.0 | 0.0 | 0.00 | 0.00 | 0.00 | 85 | 1013.5 |
| 20260506015525 | 49 | 235 | 0.0 | 0.0 | 0.00 | 0.00 | 0.00 | 85 | 1013.4 |
| 20260506014521 | 50 | 235 | 0.0 | 0.0 | 0.00 | 0.00 | 0.00 | 86 | 1013.4 |
| 20260506013517 | 50 | 235 | 0.0 | 0.0 | 0.00 | 0.00 | 0.00 | 86 | 1013.4 |
| 20260506012533 | 49 | 237 | 0.0 | 0.0 | 0.00 | 0.00 | 0.00 | 86 | 1013.5 |
| 20260506011529 | 50 | 237 | 0.0 | 0.0 | 0.00 | 0.00 | 0.00 | 86 | 1013.4 |
| 20260506010525 | 50 | 237 | 0.0 | 0.0 | 0.00 | 0.00 | 0.00 | 86 | 1013.4 |
| 20260506005521 | 51 | 238 | 0.0 | 0.0 | 0.00 | 0.00 | 0.00 | 87 | 1013.5 |
| 20260506004518 | 51 | 70 | 0.0 | 0.0 | 0.00 | 0.00 | 0.00 | 87 | 1013.4 |
| 20260506003533 | 51 | 52 | 0.0 | 0.0 | 0.00 | 0.00 | 0.00 | 87 | 1013.4 |
| 20260506002530 | 51 | 52 | 0.0 | 0.0 | 0.00 | 0.00 | 0.00 | 87 | 1013.6 |
| 20260506001525 | 52 | 52 | 0.0 | 0.0 | 0.00 | 0.00 | 0.00 | 87 | 1013.3 |
| 20260506000522 | 52 | 52 | 0.0 | 0.0 | 0.00 | 0.00 | 0.00 | 87 | 1013.4 |
| 20260505235518 | 53 | 52 | 0.0 | 0.0 | 0.00 | 0.00 | 0.00 | 87 | 1013.3 |
| 20260505234534 | 53 | 51 | 0.0 | 0.0 | 0.00 | 0.00 | 0.00 | 88 | 1013.4 |
| 20260505233530 | 53 | 97 | 0.0 | 0.0 | 0.00 | 0.00 | 0.00 | 88 | 1013.4 |
| 20260505232606 | 54 | 97 | 0.0 | 0.0 | 0.00 | 0.00 | 0.00 | 87 | 1013.5 |
| 20260505231521 | 54 | 97 | 0.0 | 0.0 | 0.00 | 0.00 | 0.00 | 87 | 1013.5 |
| 20260505230537 | 54 | 97 | 0.0 | 0.0 | 0.00 | 0.00 | 0.00 | 86 | 1013.5 |
| 20260505225533 | 54 | 97 | 0.0 | 0.0 | 0.00 | 0.00 | 0.00 | 85 | 1013.8 |
| 20260505224529 | 54 | 97 | 0.0 | 0.0 | 0.00 | 0.00 | 0.00 | 83 | 1013.7 |
| 20260505223525 | 55 | 97 | 0.0 | 0.0 | 0.00 | 0.00 | 0.00 | 82 | 1013.7 |
| 20260505222521 | 55 | 98 | 0.0 | 0.0 | 0.00 | 0.00 | 0.00 | 80 | 1013.8 |
| 20260505221517 | 55 | 98 | 0.0 | 0.0 | 0.00 | 0.00 | 0.00 | 80 | 1014.0 |
| 20260505220533 | 55 | 120 | 0.0 | 0.0 | 0.00 | 0.00 | 0.00 | 80 | 1014.0 |
| 20260505215529 | 55 | 130 | 0.0 | 0.0 | 0.00 | 0.00 | 0.00 | 81 | 1014.0 |
| 20260505214525 | 55 | 125 | 0.0 | 0.0 | 0.00 | 0.00 | 0.00 | 82 | 1014.0 |
| 20260505213520 | 55 | 105 | 0.0 | 1.0 | 0.00 | 0.00 | 0.00 | 83 | 1014.0 |
| 20260505212516 | 55 | 123 | 0.0 | 1.0 | 0.00 | 0.00 | 0.00 | 83 | 1014.1 |
| 20260505211552 | 55 | 117 | 0.0 | 0.0 | 0.00 | 0.00 | 0.00 | 83 | 1014.2 |
| 20260505210528 | 55 | 117 | 0.0 | 0.0 | 0.00 | 0.00 | 0.00 | 83 | 1014.2 |
| 20260505205524 | 56 | 117 | 0.0 | 0.0 | 0.00 | 0.00 | 0.00 | 82 | 1014.1 |
| 20260505204520 | 56 | 120 | 0.0 | 0.0 | 0.00 | 0.00 | 0.00 | 81 | 1014.3 |
| 20260505203535 | 56 | 97 | 0.0 | 0.0 | 0.00 | 0.00 | 0.00 | 80 | 1014.3 |
| 20260505202551 | 57 | 222 | 0.0 | 0.0 | 0.00 | 0.00 | 0.00 | 79 | 1014.2 |
| 20260505201527 | 59 | 70 | 0.0 | 0.0 | 0.00 | 0.00 | 0.00 | 75 | 1014.1 |
| 20260505200523 | 59 | 50 | 1.0 | 2.0 | 0.00 | 0.00 | 0.00 | 75 | 1013.9 |
| 20260505195519 | 59 | 92 | 0.0 | 2.0 | 0.00 | 0.00 | 0.00 | 76 | 1014.0 |
| 20260505194534 | 59 | 35 | 0.0 | 2.0 | 0.00 | 0.00 | 0.00 | 78 | 1013.9 |
| 20260505193530 | 58 | 64 | 0.0 | 2.0 | 0.00 | 0.00 | 0.00 | 81 | 1014.0 |
| 20260505192526 | 58 | 93 | 0.0 | 2.0 | 0.00 | 0.00 | 0.00 | 82 | 1014.0 |
| 20260505191521 | 58 | 64 | 0.0 | 1.0 | 0.00 | 0.00 | 0.00 | 83 | 1013.8 |
| 20260505190517 | 58 | 84 | 0.0 | 2.0 | 0.00 | 0.00 | 0.00 | 83 | 1013.7 |
| 20260505185533 | 58 | 83 | 1.0 | 4.0 | 0.00 | 0.00 | 0.00 | 83 | 1013.5 |
| 20260505184529 | 58 | 93 | 0.0 | 2.0 | 0.00 | 0.00 | 0.00 | 84 | 1013.5 |
| 20260505183525 | 59 | 113 | 0.0 | 2.0 | 0.00 | 0.00 | 0.00 | 83 | 1013.2 |
| 20260505182520 | 59 | 107 | 0.0 | 1.0 | 0.00 | 0.00 | 0.00 | 83 | 1013.1 |
| 20260505181516 | 60 | 98 | 0.0 | 2.0 | 0.00 | 0.00 | 0.00 | 83 | 1013.1 |
| 20260505180533 | 60 | 67 | 0.0 | 3.0 | 0.00 | 0.00 | 0.00 | 82 | 1013.1 |
| 20260505175529 | 61 | 105 | 0.0 | 0.0 | 0.00 | 0.00 | 0.00 | 82 | 1012.9 |
| 20260505174524 | 61 | 99 | 0.0 | 0.0 | 0.00 | 0.00 | 0.00 | 81 | 1012.9 |
| 20260505173520 | 62 | 88 | 2.0 | 3.0 | 0.00 | 0.00 | 0.00 | 81 | 1012.9 |
| 20260505172536 | 62 | 82 | 1.0 | 2.0 | 0.00 | 0.00 | 0.00 | 81 | 1013.0 |
| 20260505171532 | 62 | 70 | 3.0 | 7.0 | 0.00 | 0.00 | 0.00 | 80 | 1012.9 |
| 20260505170529 | 63 | 50 | 4.0 | 7.0 | 0.00 | 0.00 | 0.00 | 79 | 1012.9 |
| 20260505165524 | 63 | 53 | 3.0 | 8.0 | 0.00 | 0.00 | 0.00 | 79 | 1013.0 |
| 20260505164539 | 63 | 46 | 4.0 | 9.0 | 0.00 | 0.00 | 0.00 | 78 | 1012.9 |
| 20260505163535 | 63 | 42 | 4.0 | 7.0 | 0.00 | 0.00 | 0.00 | 78 | 1012.9 |
| 20260505162531 | 63 | 56 | 3.0 | 6.0 | 0.00 | 0.00 | 0.00 | 79 | 1012.9 |
| 20260505161547 | 63 | 42 | 4.0 | 8.0 | 0.00 | 0.00 | 0.00 | 80 | 1012.9 |
| 20260505160522 | 63 | 41 | 5.0 | 8.0 | 0.00 | 0.00 | 0.00 | 80 | 1012.8 |
| 20260505152525 | 63 | 39 | 4.0 | 8.0 | 0.00 | 0.00 | 0.00 | 80 | 1012.9 |
| 20260505151521 | 63 | 38 | 4.0 | 7.0 | 0.00 | 0.00 | 0.00 | 79 | 1013.1 |
| 20260505150517 | 63 | 41 | 5.0 | 10.0 | 0.00 | 0.00 | 0.00 | 77 | 1013.1 |